[Iaude] MPEC F01: 2024 EP4 [a=1.27,e=0.15,i=8.2,H=25.2]

mpec at cfa.harvard.edu mpec at cfa.harvard.edu
Sat Mar 16 02:47:40 EDT 2024


M.P.E.C. 2024-F01                                Issued 2024 March 16, 06:46 UT

     The Minor Planet Electronic Circulars contain information on unusual
         minor planets, routine data on comets and natural satellites,
         and occasional editorial announcements.  They are published
    on behalf of Division F of the International Astronomical Union by the
          Minor Planet Center, Smithsonian Astrophysical Observatory,
                          Cambridge, MA 02138, U.S.A.
			  
             Prepared using the Tamkin Foundation Computer Network

                              MPC at CFA.HARVARD.EDU
            URL https://www.minorplanetcenter.net/    ISSN 1523-6714

                                    2024 EP4                                    


Observations:
     K24E04P* C2024 03 14.39692412 48 42.705+14 25 32.04         21.22wXEF001F52
     K24E04P  C2024 03 14.41159712 48 43.509+14 26 25.40         22.37wXEF001F52
     K24E04P  C2024 03 14.43646412 48 44.809+14 27 54.75         21.21wXEF001F52
     K24E04P 1C2024 03 14.97492 12 49 26.63 +14 58 52.5          22.3 VXEF001033
     K24E04P 1C2024 03 14.97854 12 49 26.80 +14 59 05.9          22.4 VXEF001033
     K24E04P |C2024 03 15.19766012 49 44.180+15 13 21.20         21.5 GVEF001807
     K24E04P |C2024 03 15.20653012 49 44.640+15 13 51.50         21.4 GVEF001807
     K24E04P |C2024 03 15.21526012 49 45.060+15 14 22.20         21.5 GVEF001807
     K24E04P KC2024 03 16.25623012 51 02.73 +16 11 56.7          21.8 GVEF001H21
     K24E04P KC2024 03 16.26634312 51 03.21 +16 12 30.6          21.3 GVEF001H21
     K24E04P KC2024 03 16.26932812 51 03.36 +16 12 40.5          21.7 GVEF001H21

Observer details:
033 Karl Schwarzschild Observatory, Tautenburg.  Observers S. Melnikov, C.
    Hogner, F. Ludwig, M. Hartmann, B. Stecklum.  Measurer B. Stecklum.
    1.34-m f/3 Schmidt + CCD.
807 Cerro Tololo Observatory, La Serena.  Observers T. Linder, R. Holmes.
    0.61-m f/6.8 Ritchey-Chretien + CCD.
F52 Pan-STARRS 2, Haleakala.  Observers J. Herman, T. Lowe, P. Minguez, A.
    Schultz, I. Smith.  Measurers K. Chambers, T. de Boer, J. Fairlamb, H.
    Gao, M. Huber, C.-C. Lin, E. Magnier, Y. Ramanjooloo, R. Wainscoat, R.
    Weryk.  1.8-m Ritchey-Chretien + CCD.
H21 Astronomical Research Observatory, Westfield.  Observer R. Holmes.
    Measurers T. Linder, R. Holmes, L. Horn.  1.3-m f/4.0 astrograph + CCD.

Orbital elements:
2024 EP4                                                 Earth MOID = 0.0964 AU
Epoch 2024 Mar. 31.0 TT = JDT 2460400.5                 MPC                     
M  37.26918              (2000.0)            P               Q                  
n   0.68498850     Peri.  338.36865     -0.76892696     -0.63777098             
a   1.2745216      Node   161.78291     +0.60555562     -0.74894911             
e   0.1531614      Incl.    8.22361     +0.20507004     -0.17978715             
P   1.44           H   25.24          G   0.15           U   8                  
Residuals in seconds of arc
240314 F52  0.2-  0.3-    240314 033  1.2+  0.1+    240316 H21  0.1+  0.1+
240314 F52  0.0   0.2+    240315 807  0.1-  0.3+    240316 H21  0.1-  0.0
240314 F52  0.0   0.2+    240315 807  0.1+  0.4-    240316 H21  0.0   0.1-
240314 033  1.8+  0.6-    240315 807  0.1-  0.1-

Ephemeris:
2024 EP4                 a,e,i = 1.27, 0.15, 8                   q = 1.0793
Date    TT    R. A. (2000) Decl.     Delta      r    Elong.  Phase     V
2024 02 15    11 43 43.0 -16 24 29   0.1193  1.0810   139.5    36.4    22.3
...
2024 03 01    12 24 23.2 -00 42 03   0.1094  1.0907   154.6    22.9    21.7
...
2024 03 09    12 40 28.5 +08 41 45   0.1129  1.0991   159.1    18.8    21.7
...
2024 03 15    12 49 27.5 +15 01 01   0.1198  1.1068   158.6    19.1    21.8
2024 03 16    12 50 43.0 +15 58 05   0.1212  1.1082   158.2    19.5    21.9
2024 03 17    12 51 54.7 +16 53 09   0.1228  1.1097   157.8    19.8    21.9
...
2024 03 23    12 57 51.2 +21 39 35   0.1337  1.1188   154.4    22.6    22.2
...
2024 03 31    13 03 04.1 +26 04 25   0.1522  1.1324   149.2    26.8    22.6
...
2024 04 15    13 08 29.1 +29 13 59   0.1965  1.1617   140.6    33.3    23.4

                      (Last issue was M.P.E.C. 2024-E196)                       

A. U. Tomatic                (C) Copyright 2024 MPC           M.P.E.C. 2024-F01





More information about the Iaude mailing list